Powrót do katalogu

STARLINK-3738

AktywnyŁącznośćVLEO
NORAD 52117·PAYLOAD·🇺🇸 United States

Wystrzelony Mar 19, 2022 z Cape Canaveral Space Force Station

Loading…

Następne Przeloty (najbliższe 24 godziny)

TLE

ŚwieżeSource: CelesTrak SupGP

Epoka: Sep 15, 2026, 01:16 UTC

1 52117C 22029AF  26258.05326389  .00021270  00000+0  62844-3 0  2586
2 52117  53.1575 294.8265 0001257  86.6032 118.5184 15.34378850    13

Śledź STARLINK-3738 w czasie rzeczywistym z AllMySat

Download on the App Store